| time (UTC) | temp F | wind direction | speed knots | gust knots | rain 1hr in | rain 24hr in | rain mn in | humidity % | barometer mb |
| 20260505011529 | 64 | 4 | 0.9 | 3.5 | 0.00 | 0.00 | 0.00 | 58 | 1004.5 |
| 20260505010029 | 65 | 272 | 0.0 | 3.5 | 0.00 | 0.00 | 0.00 | 54 | 1004.3 |
| 20260505004528 | 65 | 291 | 0.0 | 2.6 | 0.00 | 0.00 | 0.00 | 54 | 1004.2 |
| 20260505003028 | 66 | 285 | 0.9 | 6.1 | 0.00 | 0.00 | 0.00 | 50 | 1004.2 |
| 20260505000028 | 67 | 300 | 2.6 | 7.0 | 0.00 | 0.00 | 0.00 | 49 | 1004.3 |
| 20260504234526 | 67 | 246 | 6.1 | 10.4 | 0.00 | 0.00 | 0.00 | 48 | 1004.0 |
| 20260504233012 | 68 | 226 | 3.5 | 10.4 | 0.00 | 0.00 | 0.00 | 46 | 1004.2 |
| 20260504231608 | 68 | 169 | 1.7 | 7.0 | 0.00 | 0.00 | 0.00 | 46 | 1004.3 |
| 20260504230050 | 69 | 359 | 1.7 | 8.7 | 0.00 | 0.00 | 0.00 | 45 | 1004.1 |
| 20260504224551 | 70 | 195 | 5.2 | 9.6 | 0.00 | 0.00 | 0.00 | 43 | 1004.2 |
| 20260504223032 | 71 | 262 | 4.3 | 15.6 | 0.00 | 0.00 | 0.00 | 41 | 1004.0 |
| 20260504221531 | 71 | 152 | 7.8 | 13.0 | 0.00 | 0.00 | 0.00 | 40 | 1004.1 |
| 20260504220023 | 71 | 183 | 1.7 | 9.6 | 0.00 | 0.00 | 0.00 | 41 | 1004.2 |
| 20260504214518 | 70 | 191 | 4.3 | 13.0 | 0.00 | 0.00 | 0.00 | 39 | 1003.9 |
| 20260504213017 | 71 | 306 | 9.6 | 14.8 | 0.00 | 0.00 | 0.00 | 39 | 1004.1 |
| 20260504211516 | 71 | 272 | 6.1 | 11.3 | 0.00 | 0.00 | 0.00 | 40 | 1004.1 |
| 20260504210015 | 71 | 210 | 4.3 | 13.9 | 0.00 | 0.00 | 0.00 | 38 | 1004.1 |
| 20260504204514 | 71 | 145 | 5.2 | 9.6 | 0.00 | 0.00 | 0.00 | 38 | 1004.3 |
| 20260504203013 | 70 | 253 | 7.8 | 18.2 | 0.00 | 0.00 | 0.00 | 37 | 1004.4 |
| 20260504201511 | 70 | 177 | 4.3 | 14.8 | 0.00 | 0.00 | 0.00 | 35 | 1004.3 |
| 20260504194557 | 71 | 82 | 4.3 | 9.6 | 0.00 | 0.00 | 0.00 | 33 | 1004.9 |
| 20260504193054 | 71 | 266 | 6.1 | 13.0 | 0.00 | 0.00 | 0.00 | 33 | 1005.1 |
| 20260504191556 | 70 | 243 | 6.1 | 13.9 | 0.00 | 0.00 | 0.00 | 32 | 1005.3 |
| 20260504190100 | 70 | 322 | 2.6 | 15.6 | 0.00 | 0.00 | 0.00 | 38 | 1005.5 |
| 20260504184604 | 69 | 318 | 6.1 | 20.0 | 0.00 | 0.00 | 0.00 | 35 | 1005.8 |
| 20260504183051 | 68 | 221 | 6.1 | 16.5 | 0.00 | 0.00 | 0.00 | 39 | 1006.0 |
| 20260504181547 | 69 | 224 | 3.5 | 13.9 | 0.00 | 0.00 | 0.00 | 40 | 1006.0 |
| 20260504180041 | 68 | 166 | 5.2 | 12.2 | 0.00 | 0.00 | 0.00 | 40 | 1006.1 |
| 20260504174539 | 67 | 220 | 5.2 | 13.0 | 0.00 | 0.00 | 0.00 | 39 | 1006.4 |
| 20260504173028 | 67 | 247 | 9.6 | 18.2 | 0.00 | 0.00 | 0.00 | 39 | 1006.4 |
| 20260504171523 | 67 | 241 | 7.0 | 16.5 | 0.00 | 0.00 | 0.00 | 41 | 1006.7 |
| 20260504081529 | 35 | 245 | 0.0 | 1.7 | 0.00 | 0.00 | 0.00 | 91 | 1010.5 |
| 20260504044552 | 40 | 243 | 0.0 | 0.9 | 0.00 | 0.00 | 0.00 | 83 | 1011.4 |
| 20260504043045 | 39 | 243 | 0.0 | 2.6 | 0.00 | 0.00 | 0.00 | 83 | 1011.4 |
| 20260504041544 | 39 | 268 | 0.0 | 0.9 | 0.00 | 0.00 | 0.00 | 85 | 1011.5 |
| 20260504040100 | 39 | 265 | 0.0 | 1.7 | 0.00 | 0.00 | 0.00 | 84 | 1011.5 |
| 20260504034539 | 39 | 266 | 0.9 | 1.7 | 0.00 | 0.00 | 0.00 | 84 | 1011.5 |
| 20260504033129 | 39 | 266 | 0.0 | 1.7 | 0.00 | 0.00 | 0.00 | 83 | 1011.5 |
| 20260504031508 | 40 | 266 | 0.0 | 1.7 | 0.00 | 0.00 | 0.00 | 81 | 1011.5 |
| 20260504030025 | 41 | 266 | 0.0 | 0.9 | 0.00 | 0.00 | 0.00 | 79 | 1011.5 |
| 20260504024555 | 42 | 266 | 0.0 | 0.9 | 0.00 | 0.00 | 0.00 | 78 | 1011.6 |
| 20260504023102 | 42 | 264 | 0.0 | 1.7 | 0.00 | 0.00 | 0.00 | 74 | 1011.5 |
| 20260504021554 | 43 | 266 | 0.0 | 0.9 | 0.00 | 0.00 | 0.00 | 69 | 1011.6 |
| 20260504020058 | 44 | 266 | 0.0 | 0.9 | 0.00 | 0.00 | 0.00 | 69 | 1011.6 |
| 20260504014553 | 45 | 266 | 0.0 | 1.7 | 0.00 | 0.00 | 0.00 | 65 | 1011.4 |
| 20260504013106 | 46 | 266 | 0.0 | 1.7 | 0.00 | 0.00 | 0.00 | 62 | 1011.2 |